PROFILE

 METAR AND TAF INFORMATION
ADDS - METARS form results

(0619 UTC 19 July 2019)
http://aviationweather.gov/metar/data/
 
UAAA 190600Z 33002MPS 9999 FEW050 37/04 Q1006 R23R/CLRD65 NOSIG
UAAA 190530Z 01003MPS 320V050 9999 FEW050 36/04 Q1007 R05L/CLRD65 NOSIG
TAF UAAA 190500Z 1906/2006 04003MPS 9999 SCT050CB SCT100 TX38/1910Z TN19/2001Z TEMPO 1906/1914 27003G08MPS PROB40 TEMPO 1906/1914 TS TEMPO 1914/1924 18003MPS TEMPO 2000/2006 22005G12MPS 

 AIRPORT MAP

 RUNWAY INFORMATION
Runway 05 Runway length 14427 ft Runway width 147 ft
Runway elevation 2224 ft Runway displaced threshold 0 ft Runway heading 56
Runway 23 Runway length 14427 ft Runway width 147 ft
Runway elevation 2234 ft Runway displaced threshold 0 ft Runway heading 236

 AIRPORT FREQUENCIES
Type APP Name APP Frequency 131.6 MHZ
Type ATIS Name ATIS Frequency 129.8 MHZ
Type GCA Name RADAR Frequency 120.8 MHZ
Type GND Name GND Frequency 121.7 MHZ
Type TWR Name TWR Frequency 119.4 MHZ

 AIRPORT NEAR NAVIGATION AIDS
Type NDB Name Almaty Frequency 443 KHZ
Type VOR-DME Name Almaty Frequency 112300 KHZ
Type NDB Name Almaty Frequency 415 KHZ